Regional Weather Roundup
Issued by NWS New Orleans/Baton Rouge, LA

Home | Current Version | Previous Version | Graphics & Text | Print | Product List | Glossary Off
Versions: 1 2 3 4 5 6 7 8 9 10 11 12 13 14 15 16 17 18 19 20 21 22 23 24 25 26 27 28 29 30 31 32 33 34 35 36 37 38 39 40 41 42 43 44 45 46 47 48 49 50

007
ASUS44 KLIX 232110
RWRLIX
NEW ORLEANS REGIONAL WEATHER ROUNDUP
NATIONAL WEATHER SERVICE NEW ORLEANS LA
300 PM CST SUN NOV 23 2014

NOTE: "FAIR" INDICATES FEW OR NO CLOUDS BELOW 12,000 FEET WITH NO
      SIGNIFICANT WEATHER AND/OR OBSTRUCTIONS TO VISIBILITY.
      SKY/WX - SKY CONDITION AND SIGNIFICANT WEATHER.
      TMP - AIR TEMPERATURE.     DP    - DEWPOINT TEMPERATURE.
      RH  - RELATIVE HUMIDITY.   PRES  - PRESSURE.
      HI  - HEAT INDEX.          WCI   - WIND CHILL INDEX.

*  THESE STATIONS ARE NOT NWS OR FAA STATIONS AND ARE NOT UNDER
   NWS QUALITY CONTROL.

LAZ038-040-048-061>063-065>067-069-232200-
SOUTHEAST LOUISIANA

CITY           SKY/WX    TMP DP  RH WIND       PRES   REMARKS
N.O. AUDUBON     N/A     74  61  64 MISG        N/A
N.O. INTL ARPT MOSUNNY   75  58  55 SW20      29.64S
N.O. LAKEFRONT MOSUNNY   74  59  59 SW15G29   29.64F
N.O. DOWNTOWN*   N/A     75  59  57 S14G21    29.66S
SLIDELL        SUNNY     73  59  61 SW10G21   29.63S
BATON ROUGE    PTSUNNY   75  57  53 SW20G29   29.59F
BOOTHVILLE     MOSUNNY   70  65  84 SW16G24   29.69S
BELLE CHASSE   MOSUNNY   75  60  59 SW13G25   29.65F
BOGALUSA*        N/A     75  58  54 SW25G33   29.62S
NEW ROADS*       N/A     74  55  52 SW17G24   29.59S
GONZALES*      MOCLDY    73  62  67 SW12G25   29.62S
HAMMOND*       PTSUNNY   75  57  53 SW12G28   29.62S
HOUMA*         MOSUNNY   75  64  69 SW17G25   29.66S
PORT FOURCHON* CLEAR     73  66  78 SW15G23   29.72R

$$

MSZ070-080>082-232200-
SOUTHERN MISSISSIPPI

CITY           SKY/WX    TMP DP  RH WIND       PRES   REMARKS
MCCOMB         MOSUNNY   72  59  63 SW13G21   29.57S
GULFPORT       SUNNY     68  60  75 SW12G22   29.65S
BILOXI         SUNNY     65  61  85 SW14      29.66S
PASCAGOULA     MOSUNNY   67  61  81 SW13G22   29.68S

$$

COASTAL OBSERVATIONS
LAKE AND NEARSHORE STATIONS

STATION/POSITION TIME  TEMP    WIND        PRES    WAVE
                       AIR SEA DIR/SP/G            HT/PER
                 (UTC) (F)     (DEG/KT/KT) (MB)    (FT/S)
PASCAGOULA       2100   66     210/ 18/ 21 1004.4
WAVELAND YACHT   2100   67     220/ 10/ 14 1003.2
GRAND ISLE       2100   72 64  220/ 11/ 18 1005.6
SOUTHWEST PASS   2100   71 71              1006.2
NEW CANAL        2100   74 56  230/ 12/ 19 1004.1
SHELL BEACH      2100   71 54  210/ 17/ 20 1004.3

OFFSHORE STATIONS

STATION/POSITION TIME  TEMP    WIND        PRES    WAVE
                       AIR SEA DIR/SP/G            HT/PER
                 (UTC) (F)     (DEG/KT/KT) (MB)    (FT/S)
64 S DAUPHIN ISL 1955   71 72  220/ 21/ 27 1007.0    8/ 7

$$




USA.gov is the U.S. government's official web portal to all federal, state and local government web resources and services.